Hovedside
METAR-TAF:

METAR-TAF

Lufthavner :

Båtsfjord, Norge

Båtsfjord lufthavn

breddegrad: 70-38N, lengdegrad: 029-44E, høyde over havet: 10 m

Gjeldene værobservasjon

Denne rapporten ble laget for 51 minutter siden, klokken 06:50 UTC
Vind 18 kt fra Sør-sørvest
Temperatur -5°C
Luftfuktighet 73%
Trykk 1022 hPa
Sikt 10 km eller mer
ingen skyer under 1500 m og ingen bygeskyer

METAR: ENBS 240650Z 20018KT CAVOK M05/M09 Q1022

Tid: 09:41 (07:41 UTC)


TAF: fraværende

Værobservasjoner og værvarsel for over 4000 flyplasser (METAR- og TAF-rapporter).

Tilgjengelige stasjoner er representert av de røde og gule prikkene på kartet.

Hold musepekeren over prikken for å se navnet på stasjonen.

Klikk så for å se værobservasjoner og -varsler.

For å forandre kartet kan du klikke på den grønne knappen med svart kryss for å zoome inn, på den grønne knappen med strek for å zoome ut, eller på de grønne pilene for å se tilstøtende kart.


METAR-TAF: